This demonstration page uses our WeatherBlox Daily Observations layout. Learn more.

Left ArrowRight Arrow

40.92945, -100.16068

Hourly Observations for May 31, 2015

Temp ( °F °C ) Dew Point ( °F °C ) Humidity (%) Winds ( mph kmh ) Pressure ( in mb ) Visibility ( mi km ) Precip ( " mm )
12:15 am 00:15 Clear 50 9.8 40 4.5 70 70 N N/A 30.21 1023 10 16 N/A
12:35 am 00:35 Clear 46 8 40 4.7 80 80 N N/A 30.24 1024 10 16 N/A
12:55 am 00:55 Clear 45 7 39 4 81 81 N N/A 30.24 1024 10 16 N/A
1:15 am 01:15 Clear 44 6.5 40 4.3 86 86 N N/A 30.24 1024 10 16 N/A
1:35 am 01:35 Clear 45 7.3 41 4.9 85 85 N N/A 30.27 1025 10 16 N/A
1:55 am 01:55 Clear 45 7 41 5 87 87 N N/A 30.24 1024 10 16 N/A
2:15 am 02:15 Clear 43 6.1 40 4.4 89 89 N N/A 30.24 1024 10 16 N/A
2:35 am 02:35 Clear 43 6.3 40 4.7 90 90 N N/A 30.24 1024 10 16 N/A
2:55 am 02:55 Clear 44 6.6 41 5.1 90 90 N N/A 30.24 1024 10 16 N/A
3:15 am 03:15 Clear 44 6.5 40 4.7 88 88 N N/A 30.24 1024 10 16 N/A
3:35 am 03:35 Clear 42 5.5 39 4 90 90 N N/A 30.24 1024 10 16 N/A
3:55 am 03:55 Clear 41 5 38 3.5 90 90 SE 3 6 30.24 1024 10 16 N/A
4:15 am 04:15 Clear 42 5.5 39 3.9 90 90 E 5 7 30.21 1023 10 16 N/A
4:35 am 04:35 Clear 41 5 38 3.5 90 90 ESE 6 9 30.24 1024 10 16 N/A
4:55 am 04:55 Clear 42 5.7 39 3.8 88 88 N N/A 30.21 1023 10 16 N/A
5:15 am 05:15 Clear 42 5.7 39 3.7 87 87 N N/A 30.21 1023 10 16 N/A
5:35 am 05:35 Clear 40 4.6 37 2.8 88 88 ESE 3 6 30.24 1024 10 16 N/A
5:55 am 05:55 Clear 41 5.1 38 3.5 90 90 ESE 3 6 30.18 1022 10 16 N/A
6:15 am 06:15 Sunny 41 5.1 39 3.7 91 91 ESE 7 11 30.18 1022 10 16 N/A
6:35 am 06:35 Sunny 43 6.1 40 4.5 90 90 ESE 6 9 30.18 1022 10 16 N/A
6:55 am 06:55 Sunny 45 7.4 42 5.6 88 88 SE 5 7 30.18 1022 10 16 N/A
7:15 am 07:15 Sunny 47 8.4 43 6.3 87 87 SE 5 7 30.15 1021 10 16 N/A
7:35 am 07:35 Sunny 49 9.6 44 6.8 83 83 SE 5 7 30.15 1021 10 16 N/A
7:55 am 07:55 Sunny 51 10.6 44 6.9 78 78 SE 7 11 30.15 1021 10 16 N/A
8:15 am 08:15 Sunny 53 11.6 46 7.6 77 77 SSE 6 9 30.12 1020 10 16 N/A
8:35 am 08:35 Sunny 55 12.8 47 8.4 75 75 SSE 8 13 30.12 1020 10 16 N/A
8:55 am 08:55 Sunny 56 13.5 49 9.2 75 75 SSE 10 17 30.09 1019 10 16 N/A
9:15 am 09:15 Sunny 58 14.7 49 9.7 72 72 SSE 12 19 30.09 1019 10 16 N/A
9:35 am 09:35 Sunny 58 14.3 50 10.2 77 77 SSE 7 11 30.12 1020 10 16 N/A
9:55 am 09:55 Sunny 62 16.6 52 10.9 69 69 SSE 10 17 30.09 1019 10 16 N/A
10:15 am 10:15 Sunny 62 16.5 50 10.1 66 66 SSE 10 17 30.09 1019 10 16 N/A
10:35 am 10:35 Sunny 64 17.8 51 10.4 62 62 S 16 26 30.03 1017 10 16 N/A
10:55 am 10:55 Sunny 64 17.8 51 10.3 62 62 S 14 22 30.03 1017 10 16 N/A
11:15 am 11:15 Sunny 65 18.3 50 10 59 59 S 13 20 30.03 1017 10 16 N/A
11:35 am 11:35 Sunny 66 19 51 10.4 58 58 S 13 20 30.03 1017 10 16 N/A
11:55 am 11:55 Sunny 67 19.5 51 10.6 57 57 SSE 15 24 30.03 1017 10 16 N/A
12:15 pm 12:15 Sunny 67 19.7 51 10.8 57 57 SSE 16 26 30.03 1017 10 16 N/A
12:35 pm 12:35 Sunny 69 20.5 53 11.5 56 56 SSE 16 26 30.00 1016 10 16 N/A
12:55 pm 12:55 Sunny 70 20.9 53 11.8 56 56 SSE 15 24 29.97 1015 10 16 N/A
1:15 pm 13:15 Sunny 69 20.7 53 11.5 56 56 SSE 17 28 29.97 1015 10 16 N/A
1:35 pm 13:35 Sunny 69 20.5 54 12.2 59 59 SSE 18 30 29.97 1015 10 16 N/A
1:55 pm 13:55 Sunny 70 21 54 12.1 57 57 SSE 16 26 29.97 1015 10 16 N/A
2:15 pm 14:15 Sunny 71 21.9 55 12.8 56 56 SSE 17 28 29.94 1014 10 16 N/A
2:35 pm 14:35 Sunny 70 21 54 12.4 58 58 S 17 28 29.94 1014 10 16 N/A
2:55 pm 14:55 Sunny 70 21.3 55 12.7 58 58 S 15 24 29.94 1014 10 16 N/A
3:15 pm 15:15 Sunny 73 22.9 55 12.8 53 53 SSE 17 28 29.94 1014 10 16 N/A
3:35 pm 15:35 Sunny 73 22.9 55 12.9 53 53 S 18 30 29.94 1014 10 16 N/A
3:55 pm 15:55 Sunny 74 23.1 56 13.2 54 54 SSE 17 28 29.94 1014 10 16 N/A
4:15 pm 16:15 Sunny 74 23.1 55 13 53 53 S 17 28 29.94 1014 10 16 N/A
4:35 pm 16:35 Sunny 73 23 55 12.8 53 53 SSE 17 28 29.94 1014 10 16 N/A
4:55 pm 16:55 Sunny 73 22.8 55 12.8 53 53 SSE 17 28 29.94 1014 10 16 N/A
5:15 pm 17:15 Sunny 71 21.8 55 12.5 56 56 SSE 17 28 29.94 1014 10 16 N/A
5:35 pm 17:35 Sunny 73 22.9 55 12.7 53 53 SSE 17 28 29.94 1014 10 16 N/A
5:55 pm 17:55 Sunny 71 21.9 54 12.1 54 54 S 16 26 29.94 1014 10 16 N/A
6:15 pm 18:15 Sunny 71 21.8 53 11.8 53 53 SE 12 19 29.94 1014 10 16 N/A
6:35 pm 18:35 Sunny 72 22.4 54 12.2 53 53 SSE 16 26 29.94 1014 10 16 N/A
7:15 pm 19:15 Partly Cloudy 71 21.6 54 12 55 55 SE 13 20 29.94 1014 10 16 N/A
7:35 pm 19:35 Sunny 71 21.4 53 11.7 54 54 SE 14 22 29.94 1014 10 16 N/A
7:55 pm 19:55 Sunny 70 21.1 53 11.7 55 55 SE 14 22 29.94 1014 10 16 N/A
8:15 pm 20:15 Sunny 70 21 54 12 57 57 SE 14 22 29.94 1014 10 16 N/A
8:35 pm 20:35 Sunny 69 20.3 54 12 59 59 SE 15 24 29.97 1015 10 16 N/A
8:55 pm 20:55 Sunny 67 19.7 54 12.1 62 62 SE 12 19 29.97 1015 10 16 N/A
9:15 pm 21:15 Clear 66 19.1 54 12.2 64 64 SE 10 17 29.97 1015 10 16 N/A
9:35 pm 21:35 Clear 66 18.7 54 12.2 66 66 SE 10 17 29.97 1015 10 16 N/A
9:55 pm 21:55 Clear 65 18.5 55 12.5 68 68 SE 15 24 29.97 1015 10 16 N/A
10:15 pm 22:15 Clear 65 18.1 55 12.5 70 70 SE 13 20 29.97 1015 10 16 N/A
10:35 pm 22:35 Clear 64 17.7 55 12.5 72 72 SE 10 17 30.00 1016 10 16 N/A
10:55 pm 22:55 Clear 63 17.3 54 12.3 73 73 SE 9 15 30.03 1017 10 16 N/A
11:15 pm 23:15 Clear 63 17 54 12.3 74 74 SE 10 17 30.03 1017 10 16 N/A
11:35 pm 23:35 Clear 62 16.6 54 12.2 75 75 SE 9 15 30.03 1017 10 16 N/A
11:55 pm 23:55 Clear 62 16.5 54 12.2 76 76 SE 9 15 30.03 1017 10 16 N/A

Powered by AerisWeather